Weather History for Adana, Turkey

Change the Weather History Date:

Tuesday, February 5, 2013

  Actual Average Record
Temperature  
Mean Temperature 58 °F -  
Max Temperature 69 °F 60 °F 71 °F (2002)
Min Temperature 46 °F 41 °F 24 °F (1997)
Degree Days  
Heating Degree Days 8    
Growing Degree Days 8 (Base 50)    
Moisture  
Dew Point 43 °F    
Average Humidity 57    
Maximum Humidity 87    
Minimum Humidity 38    
Precipitation  
Precipitation 0.00 in 0.12 in - ()
Sea Level Pressure  
Sea Level Pressure 30.03 in    
Wind  
Wind Speed 8 mph ()    
Max Wind Speed 18 mph    
Max Gust Speed -    
Visibility 4.6 miles    
Events      
Averages and records for this station are not official NWS values.
T = Trace of Precipitation, MM = Missing Value Source: Averaged Metar Reports

Daily Weather History Graph

Daily Weather History Graph

Search for Another Location

Airport:

Trip Planner

Search our weather history database for the weather conditions in past years. The results will help you decide how hot, cold, wet, or windy it might be!

Date:

Astronomy

Feb. 05, 2013 Rise Set
Actual Time 6:37 AM EET 5:08 PM EET
Civil Twilight 6:10 AM EET 5:35 PM EET
Nautical Twilight 5:39 AM EET 6:06 PM EET
Astronomical Twilight 5:09 AM EET 6:36 PM EET
Moon 1:54 AM EET (2/5) 12:08 PM EET (2/5)
Length of Visible Light 11h 24m
Length of Day
10h 30m
Waning Crescent, 30% of the Moon is Illuminated
Feb 5
Waning Crescent
Feb 10
New
Feb 17
First Quarter
Feb 25
Full
Mar 4
Last Quarter

Hourly Weather History & Observations

Time (EET) Temp. Windchill Dew Point Humidity Pressure Visibility Wind Dir Wind Speed Gust Speed Precip Events Conditions
12:20 AM 53.6 °F - 44.6 °F 72% 30.15 in 3.1 mi North 4.6 mph - N/A   Partly Cloudy
12:50 AM 51.8 °F - 44.6 °F 76% 30.12 in 3.1 mi NE 6.9 mph - N/A   Partly Cloudy
1:20 AM 53.6 °F - 44.6 °F 72% 30.12 in 3.1 mi North 4.6 mph - N/A   Partly Cloudy
1:50 AM 51.8 °F - 42.8 °F 71% 30.12 in 3.1 mi NE 5.8 mph - N/A   Partly Cloudy
2:20 AM 50.0 °F - 42.8 °F 76% 30.09 in 3.1 mi NNE 5.8 mph - N/A   Partly Cloudy
2:50 AM 51.8 °F - 42.8 °F 71% 30.09 in 3.1 mi NNE 4.6 mph - N/A   Partly Cloudy
3:20 AM 50.0 °F - 42.8 °F 76% 30.09 in 3.1 mi NE 6.9 mph - N/A   Partly Cloudy
3:50 AM 50.0 °F - 42.8 °F 76% 30.09 in 3.1 mi NNE 6.9 mph - N/A   Partly Cloudy
4:20 AM 50.0 °F - 42.8 °F 76% 30.09 in 3.1 mi NNE 1.2 mph - N/A   Partly Cloudy
4:50 AM 48.2 °F - 41.0 °F 76% 30.09 in 3.1 mi NNW 2.3 mph - N/A   Partly Cloudy
5:20 AM 46.4 °F - 41.0 °F 81% 30.09 in 3.1 mi Variable 1.2 mph - N/A   Partly Cloudy
5:50 AM 46.4 °F 44.3 °F 42.8 °F 87% 30.06 in 3.1 mi NNW 4.6 mph - N/A   Scattered Clouds
6:20 AM 46.4 °F - 41.0 °F 81% 30.06 in 3.1 mi Variable 2.3 mph - N/A   Mostly Cloudy
6:50 AM 48.2 °F - 42.8 °F 82% 30.09 in 3.1 mi NE 3.5 mph - N/A   Mostly Cloudy
7:20 AM 50.0 °F - 44.6 °F 82% 30.09 in 3.1 mi NNW 4.6 mph - N/A   Mostly Cloudy
7:50 AM 51.8 °F - 44.6 °F 76% 30.09 in 3.1 mi Calm Calm - N/A   Mostly Cloudy
8:20 AM 53.6 °F - 44.6 °F 72% 30.06 in 3.1 mi NNE 4.6 mph - N/A   Mostly Cloudy
8:50 AM 57.2 °F - 42.8 °F 59% 30.06 in 4.3 mi North 6.9 mph - N/A   Mostly Cloudy
9:20 AM 59.0 °F - 41.0 °F 51% 30.06 in 6.2 mi North 8.1 mph - N/A   Mostly Cloudy
9:50 AM 60.8 °F - 41.0 °F 48% 30.06 in 6.2 mi NNE 10.4 mph - N/A   Mostly Cloudy
10:20 AM 64.4 °F - 42.8 °F 45% 30.06 in 6.2 mi NNE 10.4 mph - N/A   Scattered Clouds
10:50 AM 66.2 °F - 41.0 °F 40% 30.06 in 6.2 mi NNE 12.7 mph - N/A   Scattered Clouds
11:20 AM 68.0 °F - 42.8 °F 40% 30.04 in 6.2 mi NNE 13.8 mph - N/A   Scattered Clouds
11:50 AM 68.0 °F - 42.8 °F 40% 30.04 in 6.2 mi NE 13.8 mph - N/A   Scattered Clouds
12:20 PM 69.8 °F - 42.8 °F 38% 30.01 in 6.2 mi NE 13.8 mph - N/A   Scattered Clouds
12:50 PM 69.8 °F - 42.8 °F 38% 30.01 in 6.2 mi NE 13.8 mph - N/A   Scattered Clouds
1:20 PM 69.8 °F - 42.8 °F 38% 29.98 in 6.2 mi NE 13.8 mph - N/A   Scattered Clouds
1:50 PM 69.8 °F - 44.6 °F 40% 29.98 in 6.2 mi NE 13.8 mph - N/A   Scattered Clouds
2:20 PM 69.8 °F - 42.8 °F 38% 29.98 in - NE 15.0 mph - N/A   Clear
2:50 PM 69.8 °F - 42.8 °F 38% 29.98 in - NE 15.0 mph - N/A   Clear
3:20 PM 69.8 °F - 42.8 °F 38% 29.98 in - NE 15.0 mph - N/A   Clear
3:50 PM 68.0 °F - 42.8 °F 40% 29.95 in - NE 12.7 mph - N/A   Clear
4:20 PM 66.2 °F - 44.6 °F 46% 29.95 in - NE 10.4 mph - N/A   Clear
4:50 PM 66.2 °F - 44.6 °F 46% 29.95 in - NE 15.0 mph - N/A   Clear
5:20 PM 64.4 °F - 42.8 °F 45% 29.95 in - NE 16.1 mph - N/A   Clear
5:50 PM 62.6 °F - 42.8 °F 48% 29.95 in - NE 12.7 mph - N/A   Clear
6:20 PM 62.6 °F - 42.8 °F 48% 29.95 in - NE 13.8 mph - N/A   Clear
6:50 PM 62.6 °F - 42.8 °F 48% 29.98 in 3.1 mi NE 11.5 mph - N/A   Haze
7:20 PM 60.8 °F - 42.8 °F 52% 29.98 in 3.1 mi NE 12.7 mph - N/A   Haze
7:50 PM 60.8 °F - 42.8 °F 52% 29.98 in 3.1 mi NE 15.0 mph - N/A   Haze
8:20 PM 60.8 °F - 42.8 °F 52% 29.98 in 6.2 mi NE 16.1 mph - N/A   Mostly Cloudy
8:50 PM 60.8 °F - 42.8 °F 52% 29.98 in 6.2 mi NE 18.4 mph - N/A   Mostly Cloudy
9:20 PM 60.8 °F - 42.8 °F 52% 29.98 in 6.2 mi NE 16.1 mph - N/A   Scattered Clouds
9:50 PM 60.8 °F - 42.8 °F 52% 29.98 in 6.2 mi NNE 16.1 mph - N/A   Scattered Clouds
10:20 PM 59.0 °F - 42.8 °F 55% 29.98 in 6.2 mi NE 15.0 mph - N/A   Scattered Clouds
10:50 PM 59.0 °F - 41.0 °F 51% 29.98 in 6.2 mi NE 17.3 mph - N/A   Scattered Clouds
11:20 PM 59.0 °F - 41.0 °F 51% 29.98 in 6.2 mi NNE 15.0 mph - N/A   Partly Cloudy
11:50 PM 59.0 °F - 41.0 °F 51% 29.98 in 6.2 mi NNE 17.3 mph - N/A   Partly Cloudy